• In Netherlands
  • List of Countries
  • For 7 days
  • Water Temperature
  • Satellite Maps
  • Weather Map
  • Weather Widgets
  • user-avatar
    Login

    Hourly Weather Ganja

    Today, 21 May, Monday

    Time Temperature Precipitation Wind Pressure Humidity
    00:00 +21°C° 0 mm 1 mps 726 mmHg 62%
    01:00 +21°C° 0 mm 1 mps 726 mmHg 63%
    02:00 +19°C° 0 mm 2 mps 726 mmHg 63%
    03:00 +19°C° 0 mm 2 mps 725 mmHg 64%
    04:00 +19°C° 0 mm 2 mps 725 mmHg 64%
    05:00 +20°C° 0 mm 2 mps 725 mmHg 64%
    06:00 +20°C° 0 mm 2 mps 726 mmHg 64%
    07:00 +21°C° 0 mm 2 mps 726 mmHg 60%
    08:00 +23°C° 0 mm 2 mps 726 mmHg 56%
    09:00 +24°C° 0 mm 2 mps 726 mmHg 52%
    10:00 +25°C° 0.4 mm 2 mps 725 mmHg 50%
    11:00 +26°C° 0.4 mm 2 mps 725 mmHg 49%
    12:00 +27°C° 0.4 mm 1 mps 725 mmHg 48%
    13:00 +27°C° 0.5 mm 2 mps 725 mmHg 47%
    14:00 +27°C° 0.5 mm 2 mps 725 mmHg 47%
    15:00 +28°C° 0.5 mm 2 mps 725 mmHg 47%
    16:00 +27°C° 0.3 mm 2 mps 725 mmHg 49%
    17:00 +27°C° 0.3 mm 2 mps 725 mmHg 51%
    18:00 +26°C° 0.3 mm 1 mps 725 mmHg 53%
    19:00 +25°C° 0.1 mm 1 mps 725 mmHg 54%
    20:00 +24°C° 0.1 mm 1 mps 726 mmHg 56%
    21:00 +23°C° 0.1 mm 1 mps 726 mmHg 57%
    22:00 +23°C° 0 mm 2 mps 726 mmHg 59%
    23:00 +21°C° 0 mm 2 mps 726 mmHg 61%

    Tomorrow, 22 May, Tuesday

    Time Temperature Precipitation Wind Pressure Humidity
    00:00 +21°C° 0 mm 2 mps 726 mmHg 62%
    01:00 +20°C° 0 mm 2 mps 726 mmHg 65%
    02:00 +20°C° 0 mm 2 mps 726 mmHg 67%
    03:00 +19°C° 0 mm 2 mps 726 mmHg 69%
    04:00 +20°C° 0 mm 2 mps 727 mmHg 69%
    05:00 +20°C° 0 mm 2 mps 727 mmHg 69%
    06:00 +20°C° 0 mm 2 mps 727 mmHg 68%
    07:00 +21°C° 0 mm 2 mps 727 mmHg 64%
    08:00 +23°C° 0 mm 2 mps 728 mmHg 59%
    09:00 +24°C° 0 mm 2 mps 728 mmHg 54%
    10:00 +25°C° 0 mm 2 mps 728 mmHg 51%
    11:00 +26°C° 0 mm 2 mps 728 mmHg 47%
    12:00 +27°C° 0 mm 3 mps 728 mmHg 44%
    13:00 +28°C° 0 mm 3 mps 728 mmHg 42%
    14:00 +28°C° 0 mm 3 mps 727 mmHg 40%
    15:00 +29°C° 0 mm 4 mps 727 mmHg 37%
    16:00 +28°C° 0 mm 4 mps 727 mmHg 39%
    17:00 +28°C° 0 mm 3 mps 727 mmHg 41%
    18:00 +27°C° 0 mm 3 mps 727 mmHg 43%
    19:00 +26°C° 0 mm 3 mps 728 mmHg 45%
    20:00 +24°C° 0 mm 3 mps 728 mmHg 47%
    21:00 +22°C° 0 mm 3 mps 728 mmHg 49%
    22:00 +21°C° 0 mm 3 mps 728 mmHg 49%
    23:00 +21°C° 0 mm 2 mps 728 mmHg 49%

    Day after tomorrow, 23 May, Wednesday

    Time Temperature Precipitation Wind Pressure Humidity
    00:00 +20°C° 0 mm 2 mps 728 mmHg 49%
    01:00 +19°C° 0 mm 2 mps 728 mmHg 48%
    02:00 +19°C° 0 mm 2 mps 728 mmHg 48%
    03:00 +19°C° 0 mm 2 mps 728 mmHg 47%
    04:00 +19°C° 0 mm 2 mps 728 mmHg 48%
    05:00 +19°C° 0 mm 2 mps 728 mmHg 49%
    06:00 +20°C° 0 mm 2 mps 728 mmHg 50%
    07:00 +21°C° 0 mm 2 mps 728 mmHg 45%
    08:00 +24°C° 0 mm 2 mps 728 mmHg 41%
    09:00 +25°C° 0 mm 2 mps 728 mmHg 36%
    10:00 +27°C° 0 mm 2 mps 728 mmHg 35%
    11:00 +28°C° 0 mm 2 mps 728 mmHg 33%
    12:00 +29°C° 0 mm 2 mps 728 mmHg 31%
    13:00 +29°C° 0 mm 3 mps 727 mmHg 30%
    14:00 +30°C° 0 mm 3 mps 727 mmHg 29%
    15:00 +32°C° 0 mm 4 mps 727 mmHg 28%
    16:00 +30°C° 0 mm 4 mps 726 mmHg 31%
    17:00 +29°C° 0 mm 4 mps 726 mmHg 34%
    18:00 +28°C° 0 mm 4 mps 726 mmHg 37%
    19:00 +27°C° 0 mm 3 mps 726 mmHg 38%
    20:00 +25°C° 0 mm 3 mps 727 mmHg 39%
    21:00 +22°C° 0 mm 3 mps 727 mmHg 40%
    22:00 +22°C° 0 mm 3 mps 727 mmHg 41%
    23:00 +21°C° 0 mm 3 mps 727 mmHg 41%

    24 May, Thursday

    Time Temperature Precipitation Wind Pressure Humidity
    00:00 +20°C° 0 mm 2 mps 726 mmHg 41%
    01:00 +20°C° 0 mm 2 mps 726 mmHg 42%
    02:00 +19°C° 0 mm 2 mps 726 mmHg 42%
    03:00 +18°C° 0 mm 2 mps 725 mmHg 43%
    04:00 +19°C° 0 mm 2 mps 725 mmHg 44%
    05:00 +19°C° 0 mm 2 mps 725 mmHg 45%
    06:00 +20°C° 0 mm 2 mps 725 mmHg 45%
    07:00 +21°C° 0 mm 2 mps 725 mmHg 41%
    08:00 +24°C° 0 mm 2 mps 725 mmHg 36%
    09:00 +25°C° 0 mm 2 mps 725 mmHg 32%
    10:00 +26°C° 0 mm 2 mps 724 mmHg 30%
    11:00 +28°C° 0 mm 2 mps 724 mmHg 28%
    12:00 +29°C° 0 mm 3 mps 724 mmHg 27%
    13:00 +29°C° 0 mm 3 mps 723 mmHg 26%
    14:00 +30°C° 0 mm 4 mps 723 mmHg 26%
    15:00 +30°C° 0 mm 4 mps 722 mmHg 25%
    16:00 +29°C° 0 mm 4 mps 722 mmHg 29%
    17:00 +29°C° 0 mm 4 mps 722 mmHg 32%
    18:00 +28°C° 0 mm 4 mps 722 mmHg 36%
    19:00 +26°C° 0 mm 3 mps 722 mmHg 39%
    20:00 +24°C° 0 mm 3 mps 722 mmHg 42%
    21:00 +21°C° 0 mm 3 mps 723 mmHg 45%
    22:00 +21°C° 0 mm 3 mps 723 mmHg 45%
    23:00 +20°C° 0 mm 3 mps 722 mmHg 45%

    25 May, Friday

    Time Temperature Precipitation Wind Pressure Humidity
    00:00 +19°C° 0 mm 2 mps 722 mmHg 45%
    01:00 +19°C° 0 mm 2 mps 722 mmHg 44%
    02:00 +19°C° 0 mm 2 mps 722 mmHg 43%
    03:00 +18°C° 0 mm 2 mps 721 mmHg 42%
    04:00 +19°C° 0 mm 2 mps 721 mmHg 43%
    05:00 +19°C° 0 mm 2 mps 722 mmHg 44%
    06:00 +19°C° 0 mm 2 mps 722 mmHg 45%
    07:00 +21°C° 0 mm 2 mps 722 mmHg 41%
    08:00 +24°C° 0 mm 2 mps 721 mmHg 37%
    09:00 +26°C° 0 mm 2 mps 721 mmHg 34%
    10:00 +27°C° 0 mm 2 mps 721 mmHg 33%
    11:00 +28°C° 0 mm 2 mps 721 mmHg 32%
    12:00 +29°C° 0 mm 2 mps 721 mmHg 31%
    13:00 +29°C° 0 mm 3 mps 720 mmHg 31%
    14:00 +30°C° 0 mm 3 mps 720 mmHg 30%
    15:00 +30°C° 0 mm 3 mps 720 mmHg 30%
    16:00 +30°C° 0 mm 3 mps 720 mmHg 33%
    17:00 +29°C° 0 mm 3 mps 720 mmHg 35%
    18:00 +29°C° 0 mm 3 mps 720 mmHg 38%
    19:00 +27°C° 0 mm 2 mps 721 mmHg 40%
    20:00 +25°C° 0 mm 2 mps 721 mmHg 43%
    21:00 +23°C° 0 mm 2 mps 721 mmHg 46%
    22:00 +21°C° 0 mm 2 mps 722 mmHg 47%
    23:00 +21°C° 0 mm 2 mps 722 mmHg 48%

    26 May, Saturday

    Time Temperature Precipitation Wind Pressure Humidity
    00:00 +20°C° 0 mm 2 mps 722 mmHg 49%
    01:00 +19°C° 0 mm 2 mps 722 mmHg 50%
    02:00 +19°C° 0 mm 2 mps 722 mmHg 51%
    03:00 +20°C° 0 mm 1 mps 722 mmHg 52%
    04:00 +19°C° 0 mm 2 mps 723 mmHg 52%
    05:00 +20°C° 0 mm 2 mps 723 mmHg 52%
    06:00 +21°C° 0 mm 2 mps 723 mmHg 51%
    07:00 +23°C° 0 mm 2 mps 723 mmHg 47%
    08:00 +25°C° 0 mm 2 mps 723 mmHg 43%
    09:00 +27°C° 0 mm 2 mps 724 mmHg 39%
    10:00 +28°C° 0 mm 2 mps 724 mmHg 37%
    11:00 +29°C° 0 mm 2 mps 724 mmHg 35%
    12:00 +30°C° 0 mm 2 mps 724 mmHg 33%
    13:00 +30°C° 0 mm 3 mps 724 mmHg 32%
    14:00 +32°C° 0 mm 4 mps 724 mmHg 31%
    15:00 +32°C° 0 mm 4 mps 723 mmHg 31%
    16:00 +30°C° 0 mm 4 mps 724 mmHg 33%
    17:00 +30°C° 0 mm 4 mps 724 mmHg 36%
    18:00 +29°C° 0 mm 4 mps 724 mmHg 38%
    19:00 +27°C° 0 mm 4 mps 725 mmHg 40%
    20:00 +26°C° 0 mm 4 mps 725 mmHg 43%
    21:00 +23°C° 0 mm 4 mps 726 mmHg 45%
    22:00 +23°C° 0 mm 4 mps 726 mmHg 46%
    23:00 +22°C° 0 mm 4 mps 726 mmHg 47%
    Show more